Regional Weather Roundup
Issued by NWS

Home | Current Version | Previous Version | Text Only | Print | Product List | Glossary On
Versions: 1 2 3 4 5 6 7 8 9 10 11 12 13 14 15 16 17 18 19 20 21 22 23 24 25 26 27 28 29 30 31 32 33 34 35 36 37 38 39 40 41 42 43 44 45 46 47 48 49 50
000
ASUS43 KMPX 230010
RWRMN
WEATHER ROUNDUP FOR MINNESOTA
NATIONAL WEATHER SERVICE TWIN CITIES/CHANHASSEN MN
700 PM CDT TUE APR 22 2014


NOTE: "FAIR" INDICATES FEW OR NO CLOUDS BELOW 12,000 FEET WITH NO
SIGNIFICANT WEATHER AND/OR OBSTRUCTIONS TO VISIBILITY. N/A MEANS
CURRENT SKY AND/OR WEATHER CONDITIONS ARE NOT AVAILABLE.

MNZ060>063-068>070-230100-
   Twin Cities Metro

CITY           SKY/WX    TMP DP  RH WIND       PRES   REMARKS
TWIN CITIES    PTSUNNY   55  26  32 NE10      30.05S
6HR MIN TEMP:  54; 6HR MAX TEMP:  59;

ST PAUL        MOSUNNY   55  25  31 NE8       30.05F
CRYSTAL        MOSUNNY   57  25  29 E6        30.03F
EDEN PRAIRIE   MOSUNNY   57  26  30 NE7       30.03F
6HR MIN TEMP:  54; 6HR MAX TEMP:  60;

LAKEVILLE      MOSUNNY   54  27  35 NE8       30.05R
SOUTH ST PAUL  MOSUNNY   58  24  27 NE3       30.04F
LAKE ELMO      FAIR      54  27  35 N7        30.05F
$$
MNZ001>005-007-008-013>017-022>024-027-028-230100-
   Northwest Minnesota

CITY           SKY/WX    TMP DP  RH WIND       PRES   REMARKS
BEMIDJI        SUNNY     52  22  31 NE3       30.03F
HALLOCK        CLOUDY    57  34  41 E12       29.99F
ROSEAU         SUNNY     52  28  40 E10       30.04F
WARROAD        SUNNY     45  25  45 E9        30.06F
THIEF RVR FALL SUNNY     55  30  38 E9        30.02F
CROOKSTON      SUNNY     59  30  33 SE10      30.01S
FOSSTON        SUNNY     57  27  30 NE6       30.02F
DETROIT LAKES  SUNNY     55  30  38 S6        30.02S
MOORHEAD       MOSUNNY   61  25  25 SE8       30.00S
PARK RAPIDS    SUNNY     56  25  30 E6        30.02S
$$
MNZ006-009>011-018-025>026-230100-
   North Central Minnesota

CITY           SKY/WX    TMP DP  RH WIND       PRES   REMARKS
BAUDETTE       SUNNY     51  21  30 NE6       30.06F
FLAG ISLAND    SUNNY     37  25  60 S3        30.06F
INTL FALLS     SUNNY     50  20  30 NE6       30.06F
6HR MIN TEMP:  47; 6HR MAX TEMP:  52;

WASKISH        SUNNY     54  25  32 NE8       30.04F
BIG FORK       SUNNY     54  18  24 N3        30.05S
LONGVILLE      SUNNY     54  19  26 N5        30.03F
GRAND RAPIDS   SUNNY     52  18  25 CALM      30.05S
CRANE LAKE     SUNNY     50  19  29 NW3       30.08F
ORR            SUNNY     50  16  25 CALM      30.04F
COOK           SUNNY     50  19  29 N3        30.06F
$$
MNZ012-019>021-037-230100-
   Northeast Minnesota

CITY           SKY/WX    TMP DP  RH WIND       PRES   REMARKS
DULUTH         SUNNY     51  20  29 NE7       30.04F
6HR MIN TEMP:  47; 6HR MAX TEMP:  53;

ELY            SUNNY     48  18  29 CALM      30.05S
HIBBING        SUNNY     53  16  23 N9        30.04F
EVELETH        SUNNY     52  21  30 N6        30.05F
DULUTH HARBOR  SUNNY     52  19  28 CALM      30.06F
TWO HARBORS    CLEAR     48  25  40 SE5       30.03F
SILVER BAY     CLEAR     45  28  53 S5        30.04F
GRAND MARAIS     N/A     38  29  70 CALM      30.09F
G MARAIS ARPRT CLEAR     37  21  52 SE5       30.05F
$$
MNZ029>031-032-039>041-046>048-054>057-064-230100-
   West Central Minnesota

CITY           SKY/WX    TMP DP  RH WIND       PRES   REMARKS
FERGUS FALLS   MOSUNNY   59  23  25 SE8       29.97F
WHEATON        SUNNY     63  37  39 SE15      30.00F
MORRIS         SUNNY     61  30  31 SE10      30.00S
ALEXANDRIA     MOSUNNY   57  30  35 SE5       30.03S
ELBOW LAKE     FAIR      58  32  36 E9        30.01S
WADENA         SUNNY     57  28  33 E5        30.02S
GLENWOOD       MOSUNNY   57  30  35 SE7       30.03F
APPLETON       MOSUNNY   61  30  31 E9        29.99F
BENSON         SUNNY     61  32  33 SE7       30.02S
ORTONVILLE     MOSUNNY   61  30  31 E13       29.97F
MADISON        PTSUNNY   63  34  34 E16       29.98F
WILLMAR        FAIR      57  36  44 SE6       30.05S
$$
MNZ033>034-036-042>043-049>051-058-059-230100-
   Central Minnesota

CITY           SKY/WX    TMP DP  RH WIND       PRES   REMARKS
ST CLOUD       MOSUNNY   58  25  28 N7        30.04S
6HR MIN TEMP:  54; 6HR MAX TEMP:  60;

SAUK CENTRE    FAIR      57  32  38 S5        30.04S
PAYNESVILLE    MOSUNNY   56  29  35 CALM      30.04F
AITKIN         SUNNY     55  10  16 NE7       30.03S
PINE RIVER     SUNNY     54  28  37 CALM      30.07S
BRAINERD       SUNNY     60  23  24 N5        30.04F
STAPLES        SUNNY     55  25  30 E6        30.03R
LONG PRAIRIE   FAIR      55  28  35 CALM      30.03S
LITTLE FALLS   SUNNY     54  23  30 NE3       30.04S
LITCHFIELD     MOSUNNY   57  30  35 CALM      30.05S
BUFFALO        SUNNY     56  28  33 NE7       30.05S
MAPLE LAKE     SUNNY     58  31  36 CALM      30.05S
$$
MNZ037-044-045-052-053-230100-
   East Central Minnesota

CITY           SKY/WX    TMP DP  RH WIND       PRES   REMARKS
PRINCETON      MOSUNNY   55  27  33 N6        30.05S
MORA           SUNNY     54  21  28 E7        30.06S
CAMBRIDGE      MOSUNNY   57  34  41 NE5       30.03S
RUSH CITY      MOSUNNY   53  24  31 NE5       30.05F
MOOSE LAKE     SUNNY     54  23  30 NE6       30.03S
HINCKLEY       FAIR      54  25  32 NE3       30.05S
CLOQUET        SUNNY     52  16  24 N3        30.04F
MCGREGOR       SUNNY     54  21  28 N7        30.04F
$$
MNZ071>073-080-081-089-090-097-098-230100-
   Southwest Minnesota

CITY           SKY/WX    TMP DP  RH WIND       PRES   REMARKS
MONTEVIDEO     MOSUNNY   61  36  39 SE12      30.01F
GRANITE FALLS  MOSUNNY   59  34  40 E12       30.02F
CANBY          CLOUDY    62  33  34 E9        29.99S
MARSHALL       PTSUNNY   63  30  29 SE10      29.99S
REDWOOD FALLS  MOSUNNY   60  33  36 E7        30.02F
OLIVIA         MOSUNNY   57  34  41 E7        30.03S
PIPESTONE      CLOUDY    63  28  27 S9        29.97F
WINDOM         MOSUNNY   61  28  29 E6        30.01F
WORTHINGTON    PTSUNNY   63  28  27 SE13      30.02S
JACKSON        PTSUNNY   61  27  27 E5        30.01F
TRACY          PTSUNNY   62  32  32 E10       30.00F
SLAYTON        CLOUDY    61  29  30 E8        30.00F
$$
MNZ065>067-074>077-082>085-091>093-230100-
   South Central Minnesota

CITY           SKY/WX    TMP DP  RH WIND       PRES   REMARKS
MANKATO        MOSUNNY   57  28  33 E6        30.04S
NEW ULM        MOSUNNY   57  34  41 E6        30.04S
ST JAMES       SUNNY     61  30  31 NE6       30.04S
FAIRMONT       SUNNY     61  32  33 NE6       30.05S
GLENCOE        MOSUNNY   57  26  29 N3        30.04S
FARIBAULT      MOSUNNY   59  19  21 NE7       30.05S
OWATONNA       MOSUNNY   55  27  33 NE9       30.04F
WASECA         MOSUNNY   55  25  30 N6        30.06S
ALBERT LEA     SUNNY     55  28  35 NE8       30.04F
$$
MNZ078>079-086>088-094>096-230100-
   Southeast Minnesota

CITY           SKY/WX    TMP DP  RH WIND       PRES   REMARKS
ROCHESTER      SUNNY     54  28  36 N8        30.05R
6HR MIN TEMP:  52; 6HR MAX TEMP:  57;

RED WING       SUNNY     55  21  26 NE5       30.04S
STANTON        MOSUNNY   56  27  32 N9        30.03S
DODGE CENTER   SUNNY     55  19  24 N8        30.04F
WINONA         CLEAR     55  27  33 NE5       30.05R
AUSTIN         SUNNY     55  27  33 N8        30.04F
PRESTON        CLEAR     54  30  40 NE7       30.04S
$$
ABBREVIATIONS USED IN REMARKS
   TC - TEMPERATURES IN CELSIUS
  WCI - WIND CHILL INDEX
   HX - HEAT INDEX
  VSB - VISIBILITY
$$



USA.gov is the U.S. government's official web portal to all federal, state and local government web resources and services.